SCP
0 0 0 0 -0 -0 -0 -0 -0 -0 0 0 -0 -0 -0 -0 0 0 0 -0 0 0 0 0 0 0 0 0 0 0 0 0 0 0 0 0 0 0 0 0 0 0 0 0
-0 0 -0 0 -0 -0 -0 -0 0 -0 0 -0 -0 -0 -0 -0 -0 -0 0 0 0 0 0 0 0 0 0 0 0 0 0 0 0 0 0 0 0 0 0 0 0 0 0 0
-0 0 -0 -0 -0 -0 -0 -0 0 0 -0 0 0 -0 -0 -0 -0 -0 -0 0 0 0 0 0 0 0 0 0 0 0 0 0 0 0 0 0 0 0 0 0 0 0 0 0
0 -0 0 -0 -0 -0 -0 -0 -0 -0 -0 -0 -0 0 0 -0 -0 -0 -0 0 0 0 0 0 0 0 0 0 0 0 0 0 0 0 0 0 0 0 0 0 0 0 0 0
-0 0 0 -0 0 -0 -0 -0 -0 0 -0 -0 -0 -0 -0 -0 -0 -0 -0 0 0 0 0 0 0 0 0 0 0 0 0 0 0 0 0 0 0 0 0 0 0 0 0 0
0 0 0 -0 -0 -0 -0 -0 0 0 0 -0 -0 -0 0 -0 -0 -0 -0 -0 -0 0 -0 0 0 0 0 0 0 0 0 0 0 0 0 0 0 0 0 0 0 0 0 0
-0 -0 0 -0 -0 -0 -0 -0 -0 -0 -0 0 0 -0 0 0 0 -0 0 -0 -0 0 0 0 0 0 0 0 0 0 0 0 0 0 0 0 0 0 0 0 0 0 0 0
0 -0 0 -0 -0 0 0 0 0 0 -0 -0 -0 -0 -0 -0 -0 -0 -0 -0 0 -0 -0 -0 0 -0 0 0 0 0 0 0 0 0 0 0 0 0 0 0 0 0 0 0
0 0 0 0 0 0 0 0 0 0 0 0 0 -0 -0 -0 0 -0 -0 -0 -0 -0 -0 -0 -0 -0 -0 0 0 0 0 0 0 0 0 0 0 0 0 0 0 0 0 0
0 0 0 0 0 0 0 0 0 0 0 0 0 -0 -0 -0 -0 -0 -0 -0 -0 -0 -0 -0 -0 -0 -0 -0 0 0 0 0 0 0 0 0 0 0 0 0 0 0 0 0
0 0 0 0 0 0 0 0 0 0 -0 -0 -0 -0 -0 -0 -0 -0 -0 -0 -0 -0 -0 -0 -0 -0 -0 -0 -0 0 0 0 0 0 0 0 0 0 0 0 0 0 0 0
0 0 0 0 0 0 0 0 0 -0 -0 -0 -0 -0 -0 -0 -0 -0 -0 -0 -0 -0 -0 -0 -0 -0 -0 -0 0 0 0 0 0 0 0 0 0 0 0 0 0 0 0 0
0 0 0 0 0 0 0 0 0 0 -0 -0 -0 -0 -0 -0 -0 -0 -0 -0 -0 -0 -0 -0 -0 -0 -0 0 0 0 0 0 0 0 0 0 0 0 0 0 0 0 0 0
0 0 0 0 0 0 0 0 0 0 0 -0 0 0 0 -0 -0 -0 -0 -0 -0 -0 -0 -0 -0 -0 0 0 0 0 0 0 0 0 0 0 0 0 0 0 0 0 0 0
0 0 0 0 0 0 0 0 0 0 -0 -0 0 0 0 0 0 0 0 0 0 0 -0 -0 -0 0 -0 0 0 0 0 0 0 0 0 0 0 0 0 0 0 0 0 0
0 0 0 0 0 0 0 0 0 0 0 0 0 0 0 0 0 0 0 0 0 0 0 0 0 0 0 0 0 0 0 0 0 0 0 0 0 0 0 0 0 0 0 0
0 0 0 0 0 0 -0 0 0 0 0 0 0 0 0 0 0 0 0 0 0 0 0 0 0 0 0 0 0 0 0 0 0 0 0 0 0 0 0 0 0 0 0 0
0 0 0 0 -0 -0 0 0 0 0 0 0 0 0 0 0 0 0 0 0 0 0 0 0 0 0 0 0 0 0 0 0 0 0 0 0 0 0 0 0 0 0 0 0
0 0 0 0 0 0 0 0 0 0 0 0 0 0 0 0 0 0 0 0 0 0 0 0 0 0 0 0 0 0 0 0 0 0 0 0 0 0 0 0 0 0 0 0
0 0 0 0 0 0 0 0 0 0 0 0 0 0 0 0 0 0 0 0 0 0 0 0 0 0 0 0 0 0 0 0 0 0 0 0 0 0 0 0 0 0 0 0
-0 0 0 0 0 0 0 0 0 0 0 0 0 0 0 0 0 0 0 0 0 0 0 0 0 0 0 0 0 0 0 0 0 0 0 0 0 0 0 0 0 0 0 0
0 0 0 0 0 0 0 0 0 0 0 0 0 0 0 0 0 0 0 0 0 0 0 0 0 0 0 0 0 0 0 0 0 0 0 0 0 0 0 0 0 0 0 0
0 0 0 0 0 0 0 0 0 0 0 0 0 0 0 0 0 0 0 0 0 0 0 0 0 0 0 0 0 0 0 0 0 0 0 0 0 0 0 0 0 0 0 0
0 0 0 0 0 0 0 0 0 0 0 0 0 0 0 0 0 0 0 0 0 0 0 0 0 0 0 0 0 0 0 0 0 0 0 0 0 0 0 0 0 0 0 0
0 0 0 0 0 0 0 0 0 0 0 0 0 0 0 0 0 0 0 0 0 0 0 0 0 0 0 0 0 0 0 0 0 0 0 0 0 0 0 0 0 0 0 0
0 0 0 0 0 0 0 0 0 0 0 0 0 0 0 0 0 0 0 0 0 0 0 0 0 0 0 0 0 0 0 0 0 0 0 0 0 0 0 0 0 0 0 0
0 0 0 0 0 0 0 0 0 0 0 0 0 0 0 0 0 0 0 0 0 0 0 0 0 0 0 0 0 0 0 0 0 0 0 0 0 0 0 0 0 0 0 0
Wind_Speed_500mb
25 31 33 18 7 20 18 19 13 5 8 19 15 22 19 25 28 33 39 45 46 41 36 31 30 31 28 27 25 19 11 3 14 27 33 38 43 46 49 56 63 67 70 71
20 13 7 7 16 8 6 17 13 17 3 20 16 25 28 35 41 46 49 49 48 40 38 35 33 32 31 30 28 23 21 14 5 7 20 28 34 38 43 48 52 58 64 68
10 7 19 7 7 6 2 5 7 9 11 18 10 15 26 41 44 42 46 52 53 48 41 38 36 33 31 30 28 26 23 19 13 5 6 12 19 27 36 41 45 51 56 61
9 17 1 5 4 6 3 5 9 5 11 15 16 22 40 48 43 45 49 50 48 45 43 40 34 32 29 27 26 26 25 24 20 16 10 3 12 20 27 34 39 43 48 52
4 5 3 7 6 6 5 5 10 12 19 16 38 21 16 54 46 43 42 40 38 38 38 36 36 33 30 28 27 24 23 21 20 19 17 13 7 6 14 21 27 32 38 44
6 4 5 6 4 5 3 4 7 8 11 16 31 7 6 46 42 39 39 40 38 36 34 33 33 33 31 32 28 28 26 22 17 13 10 10 8 5 2 5 13 19 25 29
9 5 2 6 9 1 2 6 1 8 10 17 7 5 24 32 35 34 35 37 36 39 42 41 37 33 33 31 32 29 24 20 16 12 9 6 4 5 4 6 9 14 19 23
5 5 5 2 4 3 7 4 1 5 10 11 13 17 20 22 27 33 37 38 38 38 40 39 36 35 34 32 31 27 24 21 18 14 11 8 6 6 9 11 14 17 21 25
4 8 5 7 6 7 7 8 2 2 6 7 11 14 16 20 24 29 36 39 41 43 40 38 37 37 34 33 30 27 24 22 20 18 13 10 8 7 8 11 16 18 22 25
6 5 5 15 13 10 8 9 6 3 4 6 10 11 14 20 25 29 34 39 40 40 40 40 39 36 32 31 29 27 24 23 21 17 15 11 7 6 6 9 11 14 18 22
10 15 3 19 24 17 13 11 9 7 8 9 11 6 9 13 20 27 32 37 40 42 42 40 36 35 34 32 28 25 24 20 18 18 15 12 10 8 6 6 9 10 13 16
8 9 4 6 28 27 20 17 15 15 12 9 9 6 8 12 19 27 33 38 40 42 43 44 42 37 34 31 30 26 22 22 18 16 14 12 10 8 8 7 8 10 10 12
8 15 10 12 25 26 25 24 21 20 17 13 7 3 7 13 20 26 33 41 46 49 52 50 47 42 39 35 29 26 24 21 19 18 15 14 11 6 7 5 4 5 8 10
34 23 12 26 17 28 28 27 25 21 18 13 7 3 10 18 24 31 37 43 49 55 57 54 48 41 37 40 37 30 25 23 22 20 16 13 12 12 9 8 5 4 5 6
39 38 24 16 27 33 32 31 27 23 19 15 8 10 18 25 31 35 40 47 55 59 57 49 43 37 37 34 34 33 32 26 24 22 23 20 16 13 12 12 12 15 17 18
34 39 28 25 34 35 35 34 30 26 21 13 12 18 26 33 38 42 44 52 60 64 54 47 41 37 36 32 31 31 31 31 29 26 24 26 25 23 19 16 16 15 16 20
34 33 39 38 42 43 40 31 24 22 19 17 18 26 33 40 44 46 48 55 59 56 46 45 45 41 40 35 35 33 30 29 33 32 31 28 27 26 25 24 23 23 21 22
40 36 34 42 42 42 38 30 24 22 20 20 25 32 39 45 50 51 56 61 59 52 42 46 46 43 40 39 37 34 29 26 28 31 34 35 34 34 32 31 29 28 27 28
38 26 19 27 25 33 27 24 19 18 21 25 31 38 43 44 48 56 60 61 57 57 52 49 48 49 45 41 39 34 29 26 24 25 29 34 37 37 39 40 39 39 37 37
28 22 17 26 22 28 22 16 16 18 22 29 35 40 41 44 52 57 58 60 57 54 55 50 46 40 39 39 40 40 36 33 33 31 31 30 31 36 39 41 41 41 42 43
28 25 18 27 25 20 14 10 11 15 22 29 33 38 47 52 52 54 60 63 57 54 49 42 44 43 40 40 40 38 39 41 41 39 38 38 37 35 34 35 39 43 46 48
28 27 26 27 22 15 10 7 9 17 23 28 37 46 52 54 55 57 55 57 50 41 44 46 43 43 42 39 38 36 35 35 36 35 37 38 41 43 43 41 41 40 39 39
26 26 33 30 19 13 9 8 16 23 28 35 42 44 49 52 55 57 56 43 43 44 44 40 37 36 34 32 31 31 30 31 32 34 34 34 35 36 38 41 42 44 43 42
23 25 26 18 14 10 8 13 21 28 35 38 42 44 48 49 44 38 38 39 37 34 31 31 29 26 26 24 23 24 25 25 25 26 29 31 32 32 33 33 35 37 39 40
23 25 18 13 9 9 14 21 28 33 38 41 41 37 34 33 35 33 32 31 29 30 27 25 26 26 25 24 22 21 21 21 22 23 23 24 26 28 29 30 31 31 32 33
21 16 12 8 8 13 21 27 33 36 39 37 30 27 24 23 26 29 29 30 31 30 29 26 25 25 25 24 23 22 21 20 20 20 21 21 21 22 23 24 25 26 26 25
14 11 7 7 13 18 25 31 33 31 28 26 24 21 22 23 24 26 28 29 29 30 30 29 27 25 24 23 22 21 19 18 18 17 17 17 17 17 16 16 15 16 16 17
Wind_Direction_500mb
273 274 285 279 346 14 6 344 36 34 46 351 28 16 2 7 15 21 21 21 28 39 35 36 37 38 43 42 39 36 25 293 228 227 229 228 226 229 232 234 236 239 241 240
297 258 274 255 30 354 16 357 5 351 41 355 344 25 18 15 15 16 15 18 27 36 35 32 34 35 37 41 43 43 44 41 2 257 234 232 234 233 231 232 234 236 238 238
270 313 315 143 358 341 118 44 313 3 330 327 345 39 22 10 14 14 12 19 25 29 31 28 29 30 34 34 36 42 44 42 39 21 275 251 239 238 237 235 235 237 239 240
282 316 74 123 107 312 110 64 16 321 338 327 318 119 53 27 14 12 16 21 23 25 27 28 29 32 29 31 34 35 36 36 32 33 28 305 238 239 239 239 237 237 238 238
281 274 194 128 19 347 5 58 10 342 344 341 339 176 53 14 15 16 19 24 23 25 25 28 32 30 27 31 30 29 34 32 26 22 21 24 9 271 247 244 240 237 236 234
311 265 294 221 273 203 200 211 13 349 346 345 357 43 315 358 8 17 20 23 23 29 30 32 32 30 25 28 27 31 26 22 17 14 13 10 8 4 322 247 241 236 230 225
276 294 265 224 274 252 263 252 56 332 27 7 23 4 328 0 9 16 21 23 28 33 31 29 25 24 26 25 28 24 18 14 9 1 346 331 307 274 231 195 200 198 201 198
325 252 302 258 279 154 196 176 6 7 30 19 13 17 15 9 11 19 29 31 32 32 32 29 28 27 24 20 17 12 9 6 4 2 353 331 296 258 235 216 214 206 198 193
218 248 163 176 182 178 189 169 157 5 21 36 38 32 27 28 32 28 31 32 30 27 26 24 21 19 19 16 10 6 4 3 1 358 351 341 313 281 245 222 219 217 216 215
40 302 198 193 198 202 189 164 196 191 102 71 62 40 49 40 38 35 30 26 23 22 21 19 15 11 7 1 359 359 1 358 356 352 348 343 324 293 260 235 231 225 228 223
256 268 131 230 218 210 202 183 169 162 144 123 118 83 72 47 34 27 23 18 10 6 4 360 359 357 355 351 347 346 345 348 352 347 342 333 324 308 284 255 234 226 226 233
230 228 180 178 198 202 191 185 182 172 162 148 141 112 61 39 24 17 12 7 2 357 349 342 338 335 334 337 337 334 330 328 338 337 330 326 323 327 308 279 243 227 225 224
240 192 211 186 182 191 189 188 183 182 182 183 166 106 29 13 5 0 355 352 349 345 340 334 328 323 315 311 313 319 317 313 313 317 317 318 305 301 324 306 274 270 225 204
232 212 178 199 203 193 191 190 189 189 190 198 209 288 341 346 346 345 342 337 338 337 335 331 328 329 317 307 299 297 300 298 291 292 299 306 299 287 268 260 257 231 211 207
226 217 227 220 202 190 194 193 194 197 204 216 248 309 322 325 328 332 333 331 331 332 332 330 329 330 326 320 310 293 282 283 282 276 272 278 275 275 268 257 234 218 211 203
220 216 214 205 200 197 196 198 202 205 216 235 273 296 308 314 320 326 326 326 328 331 331 325 326 324 324 323 321 313 291 272 269 270 266 262 262 260 252 246 240 235 223 212
197 204 207 205 203 203 204 206 209 215 231 253 280 297 307 311 315 319 320 321 323 325 326 321 318 314 313 309 307 310 304 289 269 260 259 257 254 256 259 251 243 239 230 228
234 241 232 228 217 206 205 207 214 227 244 268 288 300 305 309 314 316 319 319 320 320 323 314 310 309 308 304 300 298 294 287 279 270 260 256 252 251 253 253 253 251 245 235
216 220 226 214 216 210 206 210 223 243 261 283 294 299 304 310 311 314 316 315 318 319 322 316 310 307 304 299 296 293 285 277 276 275 269 262 259 256 253 251 250 250 251 251
205 202 203 188 187 187 197 211 239 262 280 290 296 301 306 309 310 313 313 314 318 316 313 309 306 304 298 293 289 287 282 276 274 274 275 270 264 259 255 253 252 251 249 248
204 204 190 176 171 176 195 229 263 285 294 300 304 307 308 311 315 313 314 314 323 314 312 310 307 305 298 293 289 285 281 278 275 273 270 268 267 264 262 261 258 255 253 251
213 203 192 183 181 189 202 230 289 310 312 310 309 310 312 315 315 313 314 315 318 315 309 308 307 303 301 297 292 288 284 281 278 273 268 265 264 264 263 260 258 259 258 255
211 209 192 189 185 185 207 268 309 317 315 314 314 315 314 315 315 314 318 323 321 318 315 317 313 310 307 302 296 291 287 283 281 280 278 274 270 266 263 261 261 259 257 254
200 197 189 184 182 202 253 300 313 316 318 318 317 318 315 315 315 321 325 328 327 325 325 322 322 320 317 315 308 301 295 292 286 280 276 274 273 270 267 265 262 261 259 257
177 180 184 182 205 264 301 313 317 318 318 322 320 322 320 322 325 332 329 327 327 324 326 322 319 318 319 318 316 313 310 306 302 296 290 283 279 276 272 268 264 261 258 255
164 173 180 210 272 305 311 315 320 324 324 324 331 330 336 335 330 329 331 333 332 329 326 322 317 312 310 309 310 309 305 301 298 297 296 295 291 286 280 275 269 262 257 254
163 182 214 272 300 309 319 324 327 327 328 334 346 345 344 342 339 338 337 336 334 333 330 327 323 318 312 308 305 302 302 304 302 301 299 297 295 291 282 276 269 260 250 244
Wind_Speed_850mb
25 31 33 18 7 20 18 19 13 5 8 19 15 22 19 25 28 33 39 45 46 41 36 31 30 31 28 27 25 19 11 3 14 27 33 38 43 46 49 56 63 67 70 71
20 13 7 7 16 8 6 17 13 17 3 20 16 25 28 35 41 46 49 49 48 40 38 35 33 32 31 30 28 23 21 14 5 7 20 28 34 38 43 48 52 58 64 68
10 7 19 7 7 6 2 5 7 9 11 18 10 15 26 41 44 42 46 52 53 48 41 38 36 33 31 30 28 26 23 19 13 5 6 12 19 27 36 41 45 51 56 61
9 17 1 5 4 6 3 5 9 5 11 15 16 22 40 48 43 45 49 50 48 45 43 40 34 32 29 27 26 26 25 24 20 16 10 3 12 20 27 34 39 43 48 52
4 5 3 7 6 6 5 5 10 12 19 16 38 21 16 54 46 43 42 40 38 38 38 36 36 33 30 28 27 24 23 21 20 19 17 13 7 6 14 21 27 32 38 44
6 4 5 6 4 5 3 4 7 8 11 16 31 7 6 46 42 39 39 40 38 36 34 33 33 33 31 32 28 28 26 22 17 13 10 10 8 5 2 5 13 19 25 29
9 5 2 6 9 1 2 6 1 8 10 17 7 5 24 32 35 34 35 37 36 39 42 41 37 33 33 31 32 29 24 20 16 12 9 6 4 5 4 6 9 14 19 23
5 5 5 2 4 3 7 4 1 5 10 11 13 17 20 22 27 33 37 38 38 38 40 39 36 35 34 32 31 27 24 21 18 14 11 8 6 6 9 11 14 17 21 25
4 8 5 7 6 7 7 8 2 2 6 7 11 14 16 20 24 29 36 39 41 43 40 38 37 37 34 33 30 27 24 22 20 18 13 10 8 7 8 11 16 18 22 25
6 5 5 15 13 10 8 9 6 3 4 6 10 11 14 20 25 29 34 39 40 40 40 40 39 36 32 31 29 27 24 23 21 17 15 11 7 6 6 9 11 14 18 22
10 15 3 19 24 17 13 11 9 7 8 9 11 6 9 13 20 27 32 37 40 42 42 40 36 35 34 32 28 25 24 20 18 18 15 12 10 8 6 6 9 10 13 16
8 9 4 6 28 27 20 17 15 15 12 9 9 6 8 12 19 27 33 38 40 42 43 44 42 37 34 31 30 26 22 22 18 16 14 12 10 8 8 7 8 10 10 12
8 15 10 12 25 26 25 24 21 20 17 13 7 3 7 13 20 26 33 41 46 49 52 50 47 42 39 35 29 26 24 21 19 18 15 14 11 6 7 5 4 5 8 10
34 23 12 26 17 28 28 27 25 21 18 13 7 3 10 18 24 31 37 43 49 55 57 54 48 41 37 40 37 30 25 23 22 20 16 13 12 12 9 8 5 4 5 6
39 38 24 16 27 33 32 31 27 23 19 15 8 10 18 25 31 35 40 47 55 59 57 49 43 37 37 34 34 33 32 26 24 22 23 20 16 13 12 12 12 15 17 18
34 39 28 25 34 35 35 34 30 26 21 13 12 18 26 33 38 42 44 52 60 64 54 47 41 37 36 32 31 31 31 31 29 26 24 26 25 23 19 16 16 15 16 20
34 33 39 38 42 43 40 31 24 22 19 17 18 26 33 40 44 46 48 55 59 56 46 45 45 41 40 35 35 33 30 29 33 32 31 28 27 26 25 24 23 23 21 22
40 36 34 42 42 42 38 30 24 22 20 20 25 32 39 45 50 51 56 61 59 52 42 46 46 43 40 39 37 34 29 26 28 31 34 35 34 34 32 31 29 28 27 28
38 26 19 27 25 33 27 24 19 18 21 25 31 38 43 44 48 56 60 61 57 57 52 49 48 49 45 41 39 34 29 26 24 25 29 34 37 37 39 40 39 39 37 37
28 22 17 26 22 28 22 16 16 18 22 29 35 40 41 44 52 57 58 60 57 54 55 50 46 40 39 39 40 40 36 33 33 31 31 30 31 36 39 41 41 41 42 43
28 25 18 27 25 20 14 10 11 15 22 29 33 38 47 52 52 54 60 63 57 54 49 42 44 43 40 40 40 38 39 41 41 39 38 38 37 35 34 35 39 43 46 48
28 27 26 27 22 15 10 7 9 17 23 28 37 46 52 54 55 57 55 57 50 41 44 46 43 43 42 39 38 36 35 35 36 35 37 38 41 43 43 41 41 40 39 39
26 26 33 30 19 13 9 8 16 23 28 35 42 44 49 52 55 57 56 43 43 44 44 40 37 36 34 32 31 31 30 31 32 34 34 34 35 36 38 41 42 44 43 42
23 25 26 18 14 10 8 13 21 28 35 38 42 44 48 49 44 38 38 39 37 34 31 31 29 26 26 24 23 24 25 25 25 26 29 31 32 32 33 33 35 37 39 40
23 25 18 13 9 9 14 21 28 33 38 41 41 37 34 33 35 33 32 31 29 30 27 25 26 26 25 24 22 21 21 21 22 23 23 24 26 28 29 30 31 31 32 33
21 16 12 8 8 13 21 27 33 36 39 37 30 27 24 23 26 29 29 30 31 30 29 26 25 25 25 24 23 22 21 20 20 20 21 21 21 22 23 24 25 26 26 25
14 11 7 7 13 18 25 31 33 31 28 26 24 21 22 23 24 26 28 29 29 30 30 29 27 25 24 23 22 21 19 18 18 17 17 17 17 17 16 16 15 16 16 17
Wind_Direction_850mb
273 274 285 279 346 14 6 344 36 34 46 351 28 16 2 7 15 21 21 21 28 39 35 36 37 38 43 42 39 36 25 293 228 227 229 228 226 229 232 234 236 239 241 240
297 258 274 255 30 354 16 357 5 351 41 355 344 25 18 15 15 16 15 18 27 36 35 32 34 35 37 41 43 43 44 41 2 257 234 232 234 233 231 232 234 236 238 238
270 313 315 143 358 341 118 44 313 3 330 327 345 39 22 10 14 14 12 19 25 29 31 28 29 30 34 34 36 42 44 42 39 21 275 251 239 238 237 235 235 237 239 240
282 316 74 123 107 312 110 64 16 321 338 327 318 119 53 27 14 12 16 21 23 25 27 28 29 32 29 31 34 35 36 36 32 33 28 305 238 239 239 239 237 237 238 238
281 274 194 128 19 347 5 58 10 342 344 341 339 176 53 14 15 16 19 24 23 25 25 28 32 30 27 31 30 29 34 32 26 22 21 24 9 271 247 244 240 237 236 234
311 265 294 221 273 203 200 211 13 349 346 345 357 43 315 358 8 17 20 23 23 29 30 32 32 30 25 28 27 31 26 22 17 14 13 10 8 4 322 247 241 236 230 225
276 294 265 224 274 252 263 252 56 332 27 7 23 4 328 0 9 16 21 23 28 33 31 29 25 24 26 25 28 24 18 14 9 1 346 331 307 274 231 195 200 198 201 198
325 252 302 258 279 154 196 176 6 7 30 19 13 17 15 9 11 19 29 31 32 32 32 29 28 27 24 20 17 12 9 6 4 2 353 331 296 258 235 216 214 206 198 193
218 248 163 176 182 178 189 169 157 5 21 36 38 32 27 28 32 28 31 32 30 27 26 24 21 19 19 16 10 6 4 3 1 358 351 341 313 281 245 222 219 217 216 215
40 302 198 193 198 202 189 164 196 191 102 71 62 40 49 40 38 35 30 26 23 22 21 19 15 11 7 1 359 359 1 358 356 352 348 343 324 293 260 235 231 225 228 223
256 268 131 230 218 210 202 183 169 162 144 123 118 83 72 47 34 27 23 18 10 6 4 360 359 357 355 351 347 346 345 348 352 347 342 333 324 308 284 255 234 226 226 233
230 228 180 178 198 202 191 185 182 172 162 148 141 112 61 39 24 17 12 7 2 357 349 342 338 335 334 337 337 334 330 328 338 337 330 326 323 327 308 279 243 227 225 224
240 192 211 186 182 191 189 188 183 182 182 183 166 106 29 13 5 0 355 352 349 345 340 334 328 323 315 311 313 319 317 313 313 317 317 318 305 301 324 306 274 270 225 204
232 212 178 199 203 193 191 190 189 189 190 198 209 288 341 346 346 345 342 337 338 337 335 331 328 329 317 307 299 297 300 298 291 292 299 306 299 287 268 260 257 231 211 207
226 217 227 220 202 190 194 193 194 197 204 216 248 309 322 325 328 332 333 331 331 332 332 330 329 330 326 320 310 293 282 283 282 276 272 278 275 275 268 257 234 218 211 203
220 216 214 205 200 197 196 198 202 205 216 235 273 296 308 314 320 326 326 326 328 331 331 325 326 324 324 323 321 313 291 272 269 270 266 262 262 260 252 246 240 235 223 212
197 204 207 205 203 203 204 206 209 215 231 253 280 297 307 311 315 319 320 321 323 325 326 321 318 314 313 309 307 310 304 289 269 260 259 257 254 256 259 251 243 239 230 228
234 241 232 228 217 206 205 207 214 227 244 268 288 300 305 309 314 316 319 319 320 320 323 314 310 309 308 304 300 298 294 287 279 270 260 256 252 251 253 253 253 251 245 235
216 220 226 214 216 210 206 210 223 243 261 283 294 299 304 310 311 314 316 315 318 319 322 316 310 307 304 299 296 293 285 277 276 275 269 262 259 256 253 251 250 250 251 251
205 202 203 188 187 187 197 211 239 262 280 290 296 301 306 309 310 313 313 314 318 316 313 309 306 304 298 293 289 287 282 276 274 274 275 270 264 259 255 253 252 251 249 248
204 204 190 176 171 176 195 229 263 285 294 300 304 307 308 311 315 313 314 314 323 314 312 310 307 305 298 293 289 285 281 278 275 273 270 268 267 264 262 261 258 255 253 251
213 203 192 183 181 189 202 230 289 310 312 310 309 310 312 315 315 313 314 315 318 315 309 308 307 303 301 297 292 288 284 281 278 273 268 265 264 264 263 260 258 259 258 255
211 209 192 189 185 185 207 268 309 317 315 314 314 315 314 315 315 314 318 323 321 318 315 317 313 310 307 302 296 291 287 283 281 280 278 274 270 266 263 261 261 259 257 254
200 197 189 184 182 202 253 300 313 316 318 318 317 318 315 315 315 321 325 328 327 325 325 322 322 320 317 315 308 301 295 292 286 280 276 274 273 270 267 265 262 261 259 257
177 180 184 182 205 264 301 313 317 318 318 322 320 322 320 322 325 332 329 327 327 324 326 322 319 318 319 318 316 313 310 306 302 296 290 283 279 276 272 268 264 261 258 255
164 173 180 210 272 305 311 315 320 324 324 324 331 330 336 335 330 329 331 333 332 329 326 322 317 312 310 309 310 309 305 301 298 297 296 295 291 286 280 275 269 262 257 254
163 182 214 272 300 309 319 324 327 327 328 334 346 345 344 342 339 338 337 336 334 333 330 327 323 318 312 308 305 302 302 304 302 301 299 297 295 291 282 276 269 260 250 244